Regional Weather Roundup
Issued by NWS Albany, NY

Home | Current Version | Previous Version | Text Only | Print | Product List | Glossary On
Versions: 1 2 3 4 5 6 7 8 9 10 11 12 13 14 15 16 17 18 19 20 21 22 23 24 25 26 27 28 29 30 31 32 33 34 35 36 37 38 39 40 41 42 43 44 45 46
000
ASUS41 KALY 290710
RWRALY

NEW YORK STATE HOURLY WEATHER ROUNDUP
NATIONAL WEATHER SERVICE ALBANY NY
200 AM EST THU JAN 29 2015

NOTE: "FAIR" INDICATES FEW OR NO CLOUDS BELOW 12,000 FEET WITH NO
SIGNIFICANT WEATHER AND/OR NO OBSTRUCTIONS TO VISIBILITY.

NYZ032-033-038>043-046>054-057>066-NYZ062>081-290800-
EAST


CITY           SKY/WX    TMP DP  RH WIND       PRES   REMARKS
ALBANY         PTCLDY     2  -4  76 CALM      30.35S
GLENS FALLS    MOCLDY    -7 -12  79 CALM      30.35R
POUGHKEEPSIE   CLEAR      1  -4  79 CALM      30.32S
NEWBURGH       CLEAR     12   1  62 CALM      30.29S
MONTGOMERY     PTCLDY     0  -4  83 CALM      30.29R
WHITE PLAINS   CLEAR     17  -1  45 N12       30.24S WCI   4
ISLIP          CLEAR     21   3  45 N13       30.26R WCI   9
NEW YORK CITY  CLEAR     23   6  48 N7        30.30R WCI  15
CENTRAL PARK   CLEAR     23   1  38 VRB3      30.31R
$$

NYZ005>009-017-018-044>046-055-056-290800-
CENTRAL


CITY           SKY/WX    TMP DP  RH WIND       PRES   REMARKS
FULTON         PTCLDY     5   0  79 SE7       30.30F WCI  -7
SYRACUSE       PTCLDY     4   1  88 E6        30.31S WCI  -7
ROME           MOCLDY    -1  -6  79 CALM      30.35S
ELMIRA         PTCLDY    -9 -12  87 CALM      30.30S
BINGHAMTON     PTCLDY    11   5  77 CALM      30.22R
MONTICELLO     PTCLDY    10  -2  56 W7        30.21F WCI   0
$$

NYZ026>034-041>043-290800-
NORTH


CITY           SKY/WX    TMP DP  RH WIND       PRES   REMARKS
WATERTOWN      FAIR      -2  -7  79 CALM      30.29F
FORT DRUM      NOT AVBL
MASSENA        PTCLDY    -4 -10  75 CALM      30.31F
SARANAC LAKE   PTCLDY   -16 -20  82 CALM      30.20R
PLATTSBURGH    PTCLDY    -1  -6  79 CALM      30.32R
$$

NYZ001>004-010>016-019>021-290800-
WEST


CITY           SKY/WX    TMP DP  RH WIND       PRES   REMARKS
NIAGARA FALLS  PTCLDY    15  10  80 SE5       30.23F WCI   8
BUFFALO        MOCLDY    12   3  67 SE6       30.23F WCI   3
DUNKIRK        PTCLDY     9   5  84 CALM      30.22F
JAMESTOWN      PTCLDY    12   1  62 S8        30.15F WCI   1
WELLSVILLE     PTCLDY    10  -2  58 CALM      30.17F
ROCHESTER      PTCLDY     5   0  79 CALM      30.27F
PENN YAN       PTCLDY     5   1  83 SW8       30.26F WCI  -8
$$

             KEY
       WCI = WIND CHILL INDEX
       VSB = VISIBILITY
       HX  = HEAT INDEX
$$


USA.gov is the U.S. government's official web portal to all federal, state and local government web resources and services.